Regional Weather Roundup
Issued by NWS

Home | Current Version | Previous Version | Graphics & Text | Print | Product List | Glossary On
Versions: 1 2 3 4 5 6 7 8 9 10 11 12 13 14 15 16 17 18 19 20 21 22 23 24 25 26 27 28 29 30 31 32 33 34 35 36 37 38 39 40 41 42 43 44 45 46 47 48 49 50
000
ASUS45 KSLC 010710
RWRUT

UTAH REGIONAL WEATHER ROUNDUP
NATIONAL WEATHER SERVICE SALT LAKE CITY UT
100 AM MDT MON SEP 01 2014

UTZ001>011-023>025-010800-

NORTHERN UTAH

CITY           SKY/WX    TMP DP  RH WIND       PRES   REMARKS
HILL AFB       CLEAR     58  34  40 E13       30.02S
LOGAN          CLEAR     52  45  77 SW9       30.03S
OGDEN          CLEAR     58  35  42 S9        30.00R
PROVO AIRPORT  CLEAR     55  43  62 CALM      30.03S
SALT LAKE CITY CLEAR     61  36  39 S7        29.99R
VERNAL         CLEAR     52  38  58 CALM      30.05R
WENDOVER       CLEAR     66  36  32 N6        30.00R
HEBER CITY     CLEAR     43  37  81 CALM      30.09R
WEST JORDAN    CLEAR     59  43  55 SW5       30.02R

$$

UTZ012>022-026-027-010800-

SOUTHERN UTAH

CITY           SKY/WX    TMP DP  RH WIND       PRES   REMARKS
BRYCE CANYON   CLEAR     43  35  73 W5        30.21R
CEDAR CITY     CLEAR     65  29  25 SE7       30.04S
MILFORD        CLEAR     61  37  41 N5        30.00S
MOAB/CYNLANDS  CLEAR     67  31  26 NW3       29.97R
PRICE          CLEAR     57  33  40 N10       30.08R
ST GEORGE      SUNNY     79  34  19 E3        29.85S
KANAB            N/A     59  32  36 NE6       30.05R

$$

REGIONAL REPORTS     COLORADO/ARIZONA

CITY           SKY/WX    TMP DP  RH WIND       PRES   REMARKS
CRAIG, CO      PTCLDY    47  40  76 CALM      30.13R
GRAND JUNCTION CLEAR     58  40  51 N3        30.01R
RIFLE          CLEAR     60  42  51 W5        30.07R
MONTROSE       CLEAR     58  41  53 S9        30.09R
CORTEZ         CLEAR     56  39  53 NE8       30.07R
PAGE, AZ       CLEAR     83  28  13 SW6       29.95R
GRAND CANYON     N/A    N/A N/A N/A MISG        N/A
KINGMAN        CLEAR     77  38  24 S10       29.92S
FLAGSTAFF      CLEAR     50  42  74 CALM      30.25R

$$

REGIONAL REPORTS    NEVADA/IDAHO/WYOMING

CITY           SKY/WX    TMP DP  RH WIND       PRES   REMARKS
LAS VEGAS, NV  CLEAR     89  29  11 S10       29.73R
ELY            CLEAR     50  35  56 S10       30.12R
ELKO           CLEAR     51  35  54 NE3       30.05R
POCATELLO, ID  CLEAR     59  37  44 S15       30.00F
BURLEY         CLEAR     53  42  66 SW10      30.00S
EVANSTON, WY   PTCLDY    48  30  49 S5        30.15R
ROCK SPRINGS   CLEAR     49  35  58 S3        30.13S

$$



USA.gov is the U.S. government's official web portal to all federal, state and local government web resources and services.